This is the latest recevied weather packets stored in our database for station/object W8RSN-13. If no packets are shown the sender has not sent any weather packets the latest 10 day(s).
| Time | Temp. | Humidity | Pressure | Rain* | Wind** | Luminosity | Snow |
|---|---|---|---|---|---|---|---|
| 1787747297 | 24.44° C | 50% | 1013.3 hPa | - | - | - | - |
| 1787746996 | 24.44° C | 50% | 1013.4 hPa | - | - | - | - |
| 1787746715 | 24.44° C | 50% | 1013.4 hPa | - | - | - | - |
| 1787746414 | 24.44° C | 51% | 1013.4 hPa | - | - | - | - |
| 1787746113 | 23.89° C | 53% | 1013.6 hPa | - | - | - | - |
| 1787745813 | 23.89° C | 54% | 1013.5 hPa | - | - | - | - |
| 1787745512 | 23.89° C | 54% | 1013.4 hPa | - | - | - | - |
| 1787745211 | 23.33° C | 54% | 1013.6 hPa | - | - | - | - |
| 1787744910 | 23.33° C | 55% | 1013.6 hPa | - | - | - | - |
| 1787744609 | 23.33° C | 56% | 1013.5 hPa | - | - | - | - |
| 1787744308 | 23.33° C | 57% | 1013.5 hPa | - | - | - | - |
| 1787744007 | 23.33° C | 58% | 1013.6 hPa | - | - | - | - |
| 1787743706 | 23.33° C | 57% | 1013.7 hPa | - | - | - | - |
| 1787743405 | 23.33° C | 56% | 1013.6 hPa | - | - | - | - |
| 1787743104 | 23.89° C | 58% | 1013.7 hPa | - | - | - | - |
| 1787742803 | 23.33° C | 57% | 1013.5 hPa | - | - | - | - |
| 1787742502 | 23.89° C | 57% | 1013.7 hPa | - | - | - | - |
| 1787742201 | 23.89° C | 56% | 1013.4 hPa | - | - | - | - |
| 1787741901 | 24.44° C | 54% | 1013.6 hPa | - | - | - | - |
| 1787741600 | 24.44° C | 54% | 1013.9 hPa | - | - | - | - |
| 1787741299 | 23.89° C | 55% | 1013.9 hPa | - | - | - | - |
| 1787740998 | 23.33° C | 57% | 1013.6 hPa | - | - | - | - |
| 1787740697 | 23.33° C | 58% | 1013.8 hPa | - | - | - | - |
| 1787740396 | 23.33° C | 59% | 1014 hPa | - | - | - | - |
| 1787740115 | 23.89° C | 56% | 1013.9 hPa | - | - | - | - |
* Rain since midnight (hover to see other rain measurements)
** Current wind speed in m/s (hover to see current wind gust speed)